Wind_Speed
11 25 26 24 23 22 21 21 20 20 19 19 19 17 16 14 12 11 10 8 10 9 10 9 10 10 11 12 13 15 17 18 20 16 27 15 15 9 17 20 18 20 16
11 19 26 26 25 24 23 21 21 20 19 18 17 18 16 15 12 10 10 8 9 10 9 9 9 9 9 10 13 14 17 15 18 16 20 4 15 8 35 19 25 22 23
15 15 21 26 26 25 24 23 21 21 18 16 18 22 17 13 13 9 9 9 7 8 8 8 7 8 9 10 13 13 15 16 17 15 10 4 3 20 9 25 17 24 18
16 14 20 22 27 26 24 22 21 20 18 17 18 18 18 16 14 11 9 9 6 6 6 6 7 7 8 9 11 13 14 15 18 19 15 17 21 7 6 10 24 22 23
19 18 20 24 26 26 25 23 21 19 18 16 17 17 16 17 13 11 11 6 5 5 4 6 6 8 8 11 13 16 16 16 16 18 21 22 23 22 13 10 14 21 22
17 17 23 26 27 27 25 23 22 19 18 17 17 16 17 16 15 13 10 7 4 3 2 6 7 9 11 13 13 13 15 16 18 18 19 19 17 16 17 12 17 18 20
17 17 15 21 26 29 26 25 23 21 20 19 17 17 16 16 14 11 9 6 4 1 4 8 10 11 11 12 13 15 16 18 17 19 22 22 24 25 24 23 21 16 21
16 18 16 21 25 28 28 24 25 23 21 20 19 17 15 14 12 9 6 4 1 3 7 8 11 12 13 14 15 17 18 17 20 21 21 23 25 26 26 24 22 13 19
16 17 18 23 24 27 28 28 26 24 21 20 18 16 14 12 9 6 4 1 3 5 7 12 14 15 15 17 18 20 21 21 22 22 24 25 26 25 25 27 27 21 13
17 15 17 23 24 27 26 28 26 24 22 19 17 15 13 10 7 5 2 2 5 8 12 13 15 17 19 20 21 22 23 24 25 27 25 26 29 30 29 28 29 27 23
17 16 16 24 25 28 28 28 26 24 22 20 17 14 11 8 4 2 2 4 8 11 13 16 18 20 21 22 23 24 25 24 27 28 29 29 30 30 30 29 29 28 26
15 15 20 23 24 27 28 26 26 24 20 18 16 12 8 5 3 1 4 8 11 13 15 17 19 21 22 23 24 25 27 28 28 29 30 31 29 30 30 30 29 28 28
16 14 16 19 22 25 26 26 24 23 20 17 13 10 7 3 0 3 7 10 12 15 17 19 21 22 23 25 26 26 27 28 28 27 27 29 29 30 29 30 28 29 29
15 14 13 17 20 24 27 25 24 21 18 15 12 8 4 1 3 6 8 11 14 17 19 21 22 23 24 25 26 27 27 28 29 30 30 30 29 30 30 30 29 28 27
15 14 13 13 20 24 26 25 22 19 15 12 9 5 1 2 4 8 11 14 16 18 20 22 22 22 24 25 25 26 28 29 29 30 30 29 29 30 31 32 31 30 27
15 13 13 17 19 25 26 25 21 17 13 10 7 3 1 3 7 10 13 15 18 19 20 21 23 24 25 23 26 27 29 29 29 29 29 30 31 30 30 30 31 31 31
14 14 13 17 22 25 25 22 19 14 11 8 5 1 3 6 9 12 15 16 18 19 20 22 23 25 26 24 26 27 29 30 29 30 31 31 28 30 32 33 31 31 30
14 13 17 21 26 24 22 20 16 12 9 6 2 2 5 8 11 14 15 16 18 20 22 23 24 25 26 25 26 27 29 29 29 29 30 31 32 30 31 33 32 29 30
15 18 26 29 25 22 19 17 14 11 7 4 2 4 8 11 13 14 15 18 19 21 23 23 24 25 27 24 25 26 28 27 28 28 29 32 34 32 31 34 32 31 29
22 25 29 27 24 19 17 15 12 8 5 2 4 7 9 11 13 15 16 18 20 22 22 23 24 23 25 26 25 26 25 28 29 29 27 27 29 34 35 34 29 28 27
26 30 27 25 21 17 14 13 9 6 2 3 5 8 10 12 13 14 18 20 21 22 24 24 22 24 23 24 23 26 28 26 28 27 29 29 31 33 33 34 34 32 35
23 24 23 22 17 14 12 10 7 3 2 5 7 9 11 13 14 16 18 19 19 22 23 21 22 20 21 21 25 24 25 27 29 30 30 33 34 37 37 33 33 34 36
21 23 23 20 14 12 9 8 4 3 5 7 9 11 13 14 15 15 16 18 20 20 17 18 18 19 20 24 22 24 26 28 30 29 31 34 34 33 31 29 29 30 26
19 22 20 18 14 10 7 5 3 4 6 8 11 13 14 14 13 14 16 17 17 18 16 16 15 18 22 21 24 27 27 27 24 27 26 27 27 26 25 26 25 25 25
19 19 17 14 11 7 5 4 4 5 7 9 11 12 12 12 13 15 16 16 16 17 21 17 18 19 18 21 26 29 28 27 27 28 24 25 24 23 23 23 24 24 24
18 17 13 11 8 6 5 5 5 6 7 9 10 11 11 14 15 16 15 12 18 18 17 19 19 19 20 23 26 25 26 26 25 22 21 21 22 22 23 24 24 24 24
Wind_Direction
170 157 160 163 165 160 161 165 162 157 157 151 150 147 139 138 137 125 115 106 105 84 91 72 53 59 41 27 23 12 12 4 4 348 344 344 330 327 355 347 347 350 351
161 157 160 165 164 164 165 167 163 162 161 163 164 159 148 149 142 129 116 104 96 97 80 77 55 42 37 18 15 10 3 354 1 348 338 329 329 343 325 326 327 326 327
170 165 162 166 167 169 170 168 168 167 168 173 147 148 155 143 132 125 115 104 87 86 80 64 50 30 24 9 2 0 354 340 338 343 332 337 305 321 309 316 313 318 316
169 167 167 166 172 170 169 169 167 173 172 177 164 169 162 156 150 143 125 118 108 86 72 55 36 18 8 350 346 335 337 333 328 329 326 313 311 308 309 295 310 308 312
169 168 170 166 173 165 166 164 165 166 173 172 173 168 166 148 140 133 135 127 106 80 23 32 9 354 342 335 334 335 334 331 324 320 317 317 312 306 296 303 306 305 305
162 161 166 164 162 158 157 159 159 160 164 164 164 150 143 143 144 147 143 134 124 105 338 341 340 340 331 333 332 328 326 322 318 314 312 308 303 303 302 298 304 301 304
158 159 160 158 145 152 158 156 155 150 151 147 146 149 146 150 145 141 135 133 128 109 299 329 329 328 322 322 322 320 318 318 313 312 310 306 302 300 296 297 296 294 299
157 159 157 150 149 154 159 155 152 146 147 144 143 146 145 140 141 141 137 127 90 317 319 318 316 317 316 317 315 312 310 306 304 305 304 302 299 296 294 291 296 297 297
151 154 149 147 149 156 162 157 151 148 148 146 143 143 142 139 139 130 108 82 337 312 301 307 310 311 310 308 307 306 305 303 302 301 299 297 296 297 297 297 295 292 298
147 148 146 147 153 160 160 154 153 150 147 144 144 145 144 145 137 120 92 328 319 306 310 310 308 307 306 304 304 303 304 303 301 302 298 296 295 295 294 292 291 289 288
151 148 145 149 154 159 154 150 150 146 144 146 147 148 143 135 124 82 3 318 303 307 304 305 304 304 304 304 303 304 305 303 303 301 299 295 295 292 293 293 290 288 283
147 146 143 145 142 145 145 144 144 143 144 144 144 144 137 122 97 26 310 304 304 304 304 305 303 303 303 304 304 305 304 303 303 301 300 297 296 293 292 291 291 286 284
140 140 138 135 137 140 140 139 141 141 143 142 144 137 132 130 270 300 299 306 311 311 308 305 303 305 306 305 305 305 303 302 301 302 304 303 302 299 295 292 288 285 284
142 136 133 138 139 138 140 140 138 141 141 145 144 139 140 188 310 314 313 313 310 306 306 304 304 307 308 307 306 304 304 302 300 300 299 297 296 293 293 291 288 290 286
140 141 142 139 137 140 142 137 137 142 145 141 135 131 145 343 325 316 313 311 306 305 305 306 309 311 309 306 306 307 305 304 304 300 298 296 295 293 292 292 291 288 283
144 140 134 132 133 138 140 138 138 139 141 133 127 118 28 324 313 311 309 306 307 308 310 311 314 313 310 307 306 306 306 305 302 301 301 298 297 295 294 292 290 290 292
142 136 132 130 133 135 134 136 136 135 130 126 113 80 320 311 311 309 309 308 312 314 314 315 315 311 309 311 311 309 307 305 303 301 301 301 299 298 295 292 290 287 285
136 131 129 122 125 130 127 129 130 130 124 114 95 348 322 315 311 309 309 312 316 317 318 317 315 313 313 315 312 310 308 305 303 301 299 298 299 298 296 294 290 286 285
123 116 116 119 122 123 127 128 126 122 117 99 50 326 315 311 307 309 313 317 321 321 320 317 315 316 315 318 315 313 310 308 306 305 304 299 296 295 296 295 292 289 287
115 115 119 121 120 125 127 121 114 111 93 64 317 312 305 303 308 313 319 323 323 320 318 316 316 316 316 318 314 316 320 312 314 314 312 311 307 307 303 306 299 293 290
111 120 121 119 119 123 120 109 108 99 79 323 313 308 312 314 318 320 321 323 323 319 318 315 316 318 317 318 319 320 317 317 314 313 311 308 308 308 306 302 298 296 296
110 111 111 115 117 113 113 107 103 91 345 320 318 320 323 323 323 323 325 324 322 319 315 316 319 317 320 319 320 322 320 318 314 310 308 306 305 305 307 303 299 297 295
112 117 118 116 112 108 105 101 76 2 339 331 329 328 326 326 325 325 324 323 319 315 318 318 313 315 318 318 321 321 319 316 313 314 314 317 317 316 313 308 307 309 300
110 119 119 117 109 100 84 70 17 350 337 334 332 330 328 326 331 325 321 314 316 320 316 312 308 316 315 317 321 318 317 316 321 319 320 323 323 321 320 319 321 319 311
111 112 107 101 93 84 71 38 7 347 341 334 332 332 333 333 332 324 316 313 317 319 316 318 320 319 317 323 323 325 330 328 326 328 330 324 323 321 322 323 321 322 321
111 104 99 96 86 77 55 24 2 342 337 334 335 333 338 338 327 315 314 319 319 318 321 323 323 326 323 325 329 334 333 336 336 340 328 325 327 325 326 326 325 323 322
Height
790 795 801 807 813 817 821 825 828 832 835 839 842 845 847 850 852 854 856 857 858 859 859 860 860 860 860 860 859 857 856 854 852 849 844 840 839 837 835 835 833 832 831
788 792 798 804 809 815 819 824 827 830 835 839 842 844 847 850 852 854 855 857 858 859 860 860 861 861 860 860 859 858 856 855 854 852 847 842 838 835 833 834 833 831 830
784 789 795 801 806 812 817 821 825 829 834 837 839 842 846 849 851 854 856 857 858 858 860 860 861 861 860 860 859 858 857 854 853 854 853 848 845 838 833 833 831 831 828
777 786 792 798 803 809 815 819 823 828 832 834 838 841 844 848 851 853 855 857 857 858 859 860 860 860 860 859 858 857 856 855 853 852 852 851 848 844 833 831 829 828 826
769 779 789 793 801 806 812 817 821 826 830 833 838 841 844 847 850 853 855 856 857 858 859 859 860 860 859 858 857 855 854 853 852 851 849 846 844 841 837 827 826 825 824
765 775 786 791 797 803 810 815 819 825 829 833 837 840 843 846 849 852 854 856 857 858 858 858 858 858 858 856 855 854 852 851 850 849 847 845 843 839 836 829 824 821 820
762 772 780 788 794 801 808 813 818 824 829 832 835 839 843 846 849 851 853 854 856 857 857 857 857 856 855 854 853 851 850 849 847 846 844 842 840 837 834 829 822 818 816
757 767 777 785 792 800 807 811 816 822 827 831 835 839 843 846 848 850 852 853 854 855 855 855 855 854 853 852 851 849 848 846 844 842 840 838 836 834 831 827 822 813 810
755 765 776 785 791 799 805 809 814 821 826 830 835 839 842 845 847 850 851 852 853 853 853 853 852 851 850 849 848 846 844 842 840 838 836 834 831 829 827 824 821 816 806
754 764 774 785 792 799 804 809 814 820 825 830 834 838 841 844 847 848 849 851 851 851 850 850 849 848 847 845 843 841 840 838 836 833 830 828 826 824 821 819 817 814 809
753 763 774 784 791 798 802 807 813 819 824 829 833 837 841 843 845 846 848 849 849 849 848 847 846 844 843 841 839 837 835 833 830 828 826 823 821 818 815 813 811 808 806
755 764 773 782 790 796 802 807 813 818 823 828 833 837 839 841 842 845 846 847 846 846 845 843 842 841 839 837 834 832 830 828 825 823 821 817 815 812 810 807 804 801 799
758 766 774 782 789 795 801 808 813 818 823 829 833 836 838 839 841 842 843 844 843 843 842 840 838 836 834 832 829 827 825 822 820 817 815 812 810 807 804 801 797 794 791
759 767 776 784 790 796 802 808 814 819 824 829 832 834 836 837 838 840 841 841 840 839 838 836 834 832 829 827 824 822 819 817 814 812 810 807 805 801 798 794 791 788 784
760 769 776 784 791 798 804 809 814 820 825 828 830 833 834 835 837 837 838 837 837 836 834 832 829 827 825 823 820 817 814 811 808 806 804 801 798 795 792 787 783 781 777
762 770 778 784 791 797 803 809 816 821 824 826 829 831 833 834 834 835 835 835 833 831 829 827 824 822 821 819 816 813 809 805 802 798 796 794 790 786 783 779 776 774 770
763 771 778 786 792 798 804 811 816 819 822 825 827 830 831 832 832 832 832 831 829 827 825 822 819 819 817 814 811 808 804 800 797 794 789 786 784 780 775 771 767 765 763
765 773 780 787 794 801 806 811 815 818 821 824 827 828 829 829 829 830 829 827 825 822 820 817 816 815 812 810 807 803 799 794 791 788 785 779 775 773 768 763 758 755 752
768 775 783 790 797 803 807 811 814 817 820 823 825 826 827 828 828 827 824 822 820 817 815 815 813 811 808 806 803 799 794 789 785 782 778 774 769 765 761 755 750 746 743
772 779 787 793 799 804 807 810 813 816 819 821 823 825 826 825 824 822 819 818 816 814 813 812 810 807 805 802 800 796 790 784 779 775 770 768 764 758 754 747 742 737 734
776 783 790 796 801 804 807 809 813 817 819 821 822 823 823 821 819 817 816 813 812 812 810 808 807 804 802 799 796 792 786 780 774 769 763 760 756 751 747 742 737 731 727
781 787 793 798 802 804 807 812 815 817 818 820 820 819 818 817 815 813 812 811 811 809 807 805 803 801 799 796 792 787 783 778 772 765 758 752 748 743 738 733 728 724 719
785 791 794 799 804 807 810 813 815 816 817 817 816 816 814 813 812 811 810 810 809 807 805 803 801 798 794 790 786 783 778 774 767 761 754 748 742 736 731 726 721 716 712
788 792 797 802 806 808 810 811 813 814 814 814 814 813 812 811 810 810 810 809 807 806 804 801 797 793 788 785 780 775 771 766 761 755 748 744 739 733 728 722 717 712 708
791 795 799 802 805 807 809 811 812 812 813 813 812 812 811 810 809 809 809 807 806 804 801 797 794 789 785 782 778 773 767 762 757 750 745 740 735 729 724 719 713 708 704
793 797 800 802 806 808 809 810 811 812 811 811 811 810 810 809 808 808 806 805 804 801 799 795 792 788 784 780 775 769 764 759 754 749 744 739 734 728 722 716 710 705 701